#Datum;Uhrzeit;WR;Pac;DaySum;Status;WR;Pac;DaySum;Status;Pdc1;Udc;Temp;WR;Pac;DaySum;Status;Pdc1;Udc;Temp;WR;Pac;DaySum;Status;Pdc1;Udc;Temp;WR;Pac;DaySum;Status;Pdc1;Pdc2;Udc1;Udc2;Temp;WR;Pac;DaySum;Status;Pdc1;Pdc2;Udc1;Udc2;Temp;WR;Pac;DaySum;Status;Pdc1;Udc;Temp;WR;Pac;DaySum;Status;Pdc1;Udc;Temp;WR;Pac;DaySum;Status;Pdc1;Udc;Temp
17.01.18;23:55:00;1;540;12738;0;2;0;4180;0;0;0;0;3;0;2681;0;0;0;0;4;0;3515;0;0;0;0;5;0;9157;0;0;0;0;0;0;6;0;6855;0;0;0;0;0;0;7;0;5178;0;0;0;0;8;0;4931;0;0;0;0;9;0;2619;0;0;0;0
17.01.18;23:50:00;1;185;12695;0;2;0;4180;0;0;0;0;3;0;2681;0;0;0;0;4;0;3515;0;0;0;0;5;0;9157;0;0;0;0;0;0;6;0;6855;0;0;0;0;0;0;7;0;5178;0;0;0;0;8;0;4931;0;0;0;0;9;0;2619;0;0;0;0
17.01.18;23:45:00;1;706;12679;0;2;0;4180;0;0;0;0;3;0;2681;0;0;0;0;4;0;3515;0;0;0;0;5;0;9157;0;0;0;0;0;0;6;0;6855;0;0;0;0;0;0;7;0;5178;0;0;0;0;8;0;4931;0;0;0;0;9;0;2619;0;0;0;0
17.01.18;23:40:00;1;256;12629;0;2;0;4180;0;0;0;0;3;0;2681;0;0;0;0;4;0;3515;0;0;0;0;5;0;9157;0;0;0;0;0;0;6;0;6855;0;0;0;0;0;0;7;0;5178;0;0;0;0;8;0;4931;0;0;0;0;9;0;2619;0;0;0;0
17.01.18;23:35:00;1;899;12607;0;2;0;4180;0;0;0;0;3;0;2681;0;0;0;0;4;0;3515;0;0;0;0;5;0;9157;0;0;0;0;0;0;6;0;6855;0;0;0;0;0;0;7;0;5178;0;0;0;0;8;0;4931;0;0;0;0;9;0;2619;0;0;0;0
17.01.18;23:30:00;1;296;12554;0;2;0;4180;0;0;0;0;3;0;2681;0;0;0;0;4;0;3515;0;0;0;0;5;0;9157;0;0;0;0;0;0;6;0;6855;0;0;0;0;0;0;7;0;5178;0;0;0;0;8;0;4931;0;0;0;0;9;0;2619;0;0;0;0
17.01.18;23:25:00;1;462;12529;0;2;0;4180;0;0;0;0;3;0;2681;0;0;0;0;4;0;3515;0;0;0;0;5;0;9157;0;0;0;0;0;0;6;0;6855;0;0;0;0;0;0;7;0;5178;0;0;0;0;8;0;4931;0;0;0;0;9;0;2619;0;0;0;0
17.01.18;23:20:00;1;462;12482;0;2;0;4180;0;0;0;0;3;0;2681;0;0;0;0;4;0;3515;0;0;0;0;5;0;9157;0;0;0;0;0;0;6;0;6855;0;0;0;0;0;0;7;0;5178;0;0;0;0;8;0;4931;0;0;0;0;9;0;2619;0;0;0;0
17.01.18;23:15:00;1;199;12455;0;2;0;4180;0;0;0;0;3;0;2681;0;0;0;0;4;0;3515;0;0;0;0;5;0;9157;0;0;0;0;0;0;6;0;6855;0;0;0;0;0;0;7;0;5178;0;0;0;0;8;0;4931;0;0;0;0;9;0;2619;0;0;0;0
17.01.18;23:10:00;1;809;12437;0;2;0;4180;0;0;0;0;3;0;2681;0;0;0;0;4;0;3515;0;0;0;0;5;0;9157;0;0;0;0;0;0;6;0;6855;0;0;0;0;0;0;7;0;5178;0;0;0;0;8;0;4931;0;0;0;0;9;0;2619;0;0;0;0
17.01.18;23:05:00;1;229;12395;0;2;0;4180;0;0;0;0;3;0;2681;0;0;0;0;4;0;3515;0;0;0;0;5;0;9157;0;0;0;0;0;0;6;0;6855;0;0;0;0;0;0;7;0;5178;0;0;0;0;8;0;4931;0;0;0;0;9;0;2619;0;0;0;0
17.01.18;23:00:00;1;599;12376;0;2;0;4180;0;0;0;0;3;0;2681;0;0;0;0;4;0;3515;0;0;0;0;5;0;9157;0;0;0;0;0;0;6;0;6855;0;0;0;0;0;0;7;0;5178;0;0;0;0;8;0;4931;0;0;0;0;9;0;2619;0;0;0;0
17.01.18;22:55:00;1;186;12331;0;2;0;4180;0;0;0;0;3;0;2681;0;0;0;0;4;0;3515;0;0;0;0;5;0;9157;2;0;0;0;0;0;6;0;6855;2;0;0;0;0;0;7;0;5178;0;0;0;0;8;0;4931;0;0;0;0;9;0;2619;0;0;0;0
17.01.18;22:50:00;1;594;12316;0;2;0;4180;0;0;0;0;3;0;2681;0;0;0;0;4;0;3515;0;0;0;0;5;0;9157;2;0;0;0;0;0;6;0;6855;2;0;0;0;0;0;7;0;5178;0;0;0;0;8;0;4931;0;0;0;0;9;0;2619;0;0;0;0
17.01.18;22:45:00;1;185;12273;0;2;0;4180;0;0;0;0;3;0;2681;0;0;0;0;4;0;3515;0;0;0;0;5;0;9157;2;0;0;0;0;0;6;0;6855;2;0;0;0;0;0;7;0;5178;0;0;0;0;8;0;4931;0;0;0;0;9;0;2619;0;0;0;0
17.01.18;22:40:00;1;424;12257;0;2;0;4180;0;0;0;0;3;0;2681;0;0;0;0;4;0;3515;0;0;0;0;5;0;9157;2;0;0;0;0;0;6;0;6855;2;0;0;0;0;0;7;0;5178;0;0;0;0;8;0;4931;0;0;0;0;9;0;2619;0;0;0;0
17.01.18;22:35:00;1;252;12210;0;2;0;4180;0;0;0;0;3;0;2681;0;0;0;0;4;0;3515;0;0;0;0;5;0;9157;2;0;0;0;0;0;6;0;6855;2;0;0;0;0;0;7;0;5178;0;0;0;0;8;0;4931;0;0;0;0;9;0;2619;0;0;0;0
17.01.18;22:30:00;1;463;12189;0;2;0;4180;0;0;0;0;3;0;2681;0;0;0;0;4;0;3515;0;0;0;0;5;0;9157;2;0;0;0;0;0;6;0;6855;2;0;0;0;0;0;7;0;5178;0;0;0;0;8;0;4931;0;0;0;0;9;0;2619;0;0;0;0
17.01.18;22:25:00;1;562;12139;0;2;0;4180;0;0;0;0;3;0;2681;0;0;0;0;4;0;3515;0;0;0;0;5;0;9157;2;0;0;0;0;0;6;0;6855;2;0;0;0;0;0;7;0;5178;0;0;0;0;8;0;4931;0;0;0;0;9;0;2619;0;0;0;0
17.01.18;22:20:00;1;285;12118;0;2;0;4180;0;0;0;0;3;0;2681;0;0;0;0;4;0;3515;0;0;0;0;5;0;9157;2;0;0;0;0;0;6;0;6855;2;0;0;0;0;0;7;0;5178;0;0;0;0;8;0;4931;0;0;0;0;9;0;2619;0;0;0;0
17.01.18;22:15:00;1;590;12093;0;2;0;4180;0;0;0;0;3;0;2681;0;0;0;0;4;0;3515;0;0;0;0;5;0;9157;2;0;0;0;0;0;6;0;6855;2;0;0;0;0;0;7;0;5178;0;0;0;0;8;0;4931;0;0;0;0;9;0;2619;0;0;0;0
17.01.18;22:10:00;1;391;12031;0;2;0;4180;0;0;0;0;3;0;2681;0;0;0;0;4;0;3515;0;0;0;0;5;0;9157;2;0;0;0;0;0;6;0;6855;2;0;0;0;0;0;7;0;5178;0;0;0;0;8;0;4931;0;0;0;0;9;0;2619;0;0;0;0
17.01.18;22:05:00;1;812;11998;0;2;0;4180;0;0;0;0;3;0;2681;0;0;0;0;4;0;3515;0;0;0;0;5;0;9157;2;0;0;0;0;0;6;0;6855;2;0;0;0;0;0;7;0;5178;0;0;0;0;8;0;4931;0;0;0;0;9;0;2619;0;0;0;0
17.01.18;22:00:00;1;442;11935;0;2;0;4180;0;0;0;0;3;0;2681;0;0;0;0;4;0;3515;0;0;0;0;5;0;9157;2;0;0;0;0;0;6;0;6855;2;0;0;0;0;0;7;0;5178;0;0;0;0;8;0;4931;0;0;0;0;9;0;2619;0;0;0;0
17.01.18;21:55:00;1;758;11898;0;2;0;4180;0;0;0;0;3;0;2681;0;0;0;0;4;0;3515;0;0;0;0;5;0;9157;2;0;0;0;0;0;6;0;6855;2;0;0;0;0;0;7;0;5178;0;0;0;0;8;0;4931;0;0;0;0;9;0;2619;0;0;0;0
17.01.18;21:50:00;1;398;11838;0;2;0;4180;0;0;0;0;3;0;2681;0;0;0;0;4;0;3515;0;0;0;0;5;0;9157;2;0;0;0;0;0;6;0;6855;2;0;0;0;0;0;7;0;5178;0;0;0;0;8;0;4931;0;0;0;0;9;0;2619;0;0;0;0
17.01.18;21:45:00;1;525;11805;0;2;0;4180;0;0;0;0;3;0;2681;0;0;0;0;4;0;3515;0;0;0;0;5;0;9157;2;0;0;0;0;0;6;0;6855;2;0;0;0;0;0;7;0;5178;0;0;0;0;8;0;4931;0;0;0;0;9;0;2619;0;0;0;0
17.01.18;21:40:00;1;377;11747;0;2;0;4180;0;0;0;0;3;0;2681;0;0;0;0;4;0;3515;0;0;0;0;5;0;9157;2;0;0;0;0;0;6;0;6855;2;0;0;0;0;0;7;0;5178;0;0;0;0;8;0;4931;0;0;0;0;9;0;2619;0;0;0;0
17.01.18;21:35:00;1;376;11715;0;2;0;4180;0;0;0;0;3;0;2681;0;0;0;0;4;0;3515;0;0;0;0;5;0;9157;2;0;0;0;0;0;6;0;6855;2;0;0;0;0;0;7;0;5178;0;0;0;0;8;0;4931;0;0;0;0;9;0;2619;0;0;0;0
17.01.18;21:30:00;1;975;11682;0;2;0;4180;0;0;0;0;3;0;2681;0;0;0;0;4;0;3515;0;0;0;0;5;0;9157;2;0;0;0;0;0;6;0;6855;2;0;0;0;0;0;7;0;5178;0;0;0;0;8;0;4931;0;0;0;0;9;0;2619;0;0;0;0
17.01.18;21:25:00;1;339;11626;0;2;0;4180;0;0;0;0;3;0;2681;0;0;0;0;4;0;3515;0;0;0;0;5;0;9157;2;0;0;0;0;0;6;0;6855;2;0;0;0;0;0;7;0;5178;0;0;0;0;8;0;4931;0;0;0;0;9;0;2619;0;0;0;0
17.01.18;21:20:00;1;946;11598;0;2;0;4180;0;0;0;0;3;0;2681;0;0;0;0;4;0;3515;0;0;0;0;5;0;9157;2;0;0;0;0;0;6;0;6855;2;0;0;0;0;0;7;0;5178;0;0;0;0;8;0;4931;0;0;0;0;9;0;2619;0;0;0;0
17.01.18;21:15:00;1;348;11540;0;2;0;4180;0;0;0;0;3;0;2681;0;0;0;0;4;0;3515;0;0;0;0;5;0;9157;2;0;0;0;0;0;6;0;6855;2;0;0;0;0;0;7;0;5178;0;0;0;0;8;0;4931;0;0;0;0;9;0;2619;0;0;0;0
17.01.18;21:10:00;1;589;11511;0;2;0;4180;0;0;0;0;3;0;2681;0;0;0;0;4;0;3515;0;0;0;0;5;0;9157;2;0;0;0;0;0;6;0;6855;2;0;0;0;0;0;7;0;5178;0;0;0;0;8;0;4931;0;0;0;0;9;0;2619;0;0;0;0
17.01.18;21:05:00;1;351;11454;0;2;0;4180;0;0;0;0;3;0;2681;0;0;0;0;4;0;3515;0;0;0;0;5;0;9157;2;0;0;0;0;0;6;0;6855;2;0;0;0;0;0;7;0;5178;0;0;0;0;8;0;4931;0;0;0;0;9;0;2619;0;0;0;0
17.01.18;21:00:00;1;763;11425;0;2;0;4180;0;0;0;0;3;0;2681;0;0;0;0;4;0;3515;0;0;0;0;5;0;9157;2;0;0;0;0;0;6;0;6855;2;0;0;0;0;0;7;0;5178;0;0;0;0;8;0;4931;0;0;0;0;9;0;2619;0;0;0;0
17.01.18;20:55:00;1;354;11367;0;2;0;4180;0;0;0;0;3;0;2681;0;0;0;0;4;0;3515;0;0;0;0;5;0;9157;2;0;0;0;0;0;6;0;6855;2;0;0;0;0;0;7;0;5178;0;0;0;0;8;0;4931;0;0;0;0;9;0;2619;0;0;0;0
17.01.18;20:50:00;1;415;11338;0;2;0;4180;0;0;0;0;3;0;2681;0;0;0;0;4;0;3515;0;0;0;0;5;0;9157;2;0;0;0;0;0;6;0;6855;2;0;0;0;0;0;7;0;5178;0;0;0;0;8;0;4931;0;0;0;0;9;0;2619;0;0;0;0
17.01.18;20:45:00;1;670;11284;0;2;0;4180;0;0;0;0;3;0;2681;0;0;0;0;4;0;3515;0;0;0;0;5;0;9157;2;0;0;0;0;0;6;0;6855;2;0;0;0;0;0;7;0;5178;0;0;0;0;8;0;4931;0;0;0;0;9;0;2619;0;0;0;0
17.01.18;20:40:00;1;470;11237;0;2;0;4180;0;0;0;0;3;0;2681;0;0;0;0;4;0;3515;0;0;0;0;5;0;9157;2;0;0;0;0;0;6;0;6855;2;0;0;0;0;0;7;0;5178;0;0;0;0;8;0;4931;0;0;0;0;9;0;2619;0;0;0;0
17.01.18;20:35:00;1;888;11196;0;2;0;4180;0;0;0;0;3;0;2681;0;0;0;0;4;0;3515;0;0;0;0;5;0;9157;2;0;0;0;0;0;6;0;6855;2;0;0;0;0;0;7;0;5178;0;0;0;0;8;0;4931;0;0;0;0;9;0;2619;0;0;0;0
17.01.18;20:30:00;1;481;11127;0;2;0;4180;0;0;0;0;3;0;2681;0;0;0;0;4;0;3515;0;0;0;0;5;0;9157;2;0;0;0;0;0;6;0;6855;2;0;0;0;0;0;7;0;5178;0;0;0;0;8;0;4931;0;0;0;0;9;0;2619;0;0;0;0
17.01.18;20:25:00;1;1110;11087;0;2;0;4180;0;0;0;0;3;0;2681;0;0;0;0;4;0;3515;0;0;0;0;5;0;9157;2;0;0;0;0;0;6;0;6855;2;0;0;0;0;0;7;0;5178;0;0;0;0;8;0;4931;0;0;0;0;9;0;2619;0;0;0;0
17.01.18;20:20:00;1;557;11013;0;2;0;4180;0;0;0;0;3;0;2681;0;0;0;0;4;0;3515;0;0;0;0;5;0;9157;2;0;0;0;0;0;6;0;6855;2;0;0;0;0;0;7;0;5178;0;0;0;0;8;0;4931;0;0;0;0;9;0;2619;0;0;0;0
17.01.18;20:15:00;1;1342;10966;0;2;0;4180;0;0;0;0;3;0;2681;0;0;0;0;4;0;3515;0;0;0;0;5;0;9157;2;0;0;0;0;0;6;0;6855;2;0;0;0;0;0;7;0;5178;0;0;0;0;8;0;4931;0;0;0;0;9;0;2619;0;0;0;0
17.01.18;20:10:00;1;538;10892;0;2;0;4180;0;0;0;0;3;0;2681;0;0;0;0;4;0;3515;0;0;0;0;5;0;9157;2;0;0;0;0;0;6;0;6855;2;0;0;0;0;0;7;0;5178;0;0;0;0;8;0;4931;0;0;0;0;9;0;2619;0;0;0;0
17.01.18;20:05:00;1;1022;10847;0;2;0;4180;0;0;0;0;3;0;2681;0;0;0;0;4;0;3515;0;0;0;0;5;0;9157;2;0;0;0;0;0;6;0;6855;2;0;0;0;0;0;7;0;5178;0;0;0;0;8;0;4931;0;0;0;0;9;0;2619;0;0;0;0
17.01.18;20:00:00;1;485;10771;0;2;0;4180;0;0;0;0;3;0;2681;0;0;0;0;4;0;3515;0;0;0;0;5;0;9157;2;0;0;0;0;0;6;0;6855;2;0;0;0;0;0;7;0;5178;0;0;0;0;8;0;4931;0;0;0;0;9;0;2619;0;0;0;0
17.01.18;19:55:00;1;691;10731;0;2;0;4180;0;0;0;0;3;0;2681;0;0;0;0;4;0;3515;0;0;0;0;5;0;9157;2;0;0;0;0;0;6;0;6855;2;0;0;0;0;0;7;0;5178;0;0;0;0;8;0;4931;0;0;0;0;9;0;2619;0;0;0;0
17.01.18;19:50:00;1;741;10665;0;2;0;4180;0;0;0;0;3;0;2681;0;0;0;0;4;0;3515;0;0;0;0;5;0;9157;2;0;0;0;0;0;6;0;6855;2;0;0;0;0;0;7;0;5178;0;0;0;0;8;0;4931;0;0;0;0;9;0;2619;0;0;0;0
17.01.18;19:45:00;1;570;10613;0;2;0;4180;0;0;0;0;3;0;2681;0;0;0;0;4;0;3515;0;0;0;0;5;0;9157;2;0;0;0;0;0;6;0;6855;2;0;0;0;0;0;7;0;5178;0;0;0;0;8;0;4931;0;0;0;0;9;0;2619;0;0;0;0
17.01.18;19:40:00;1;926;10566;0;2;0;4180;0;0;0;0;3;0;2681;0;0;0;0;4;0;3515;0;0;0;0;5;0;9157;2;0;0;0;0;0;6;0;6855;2;0;0;0;0;0;7;0;5178;0;0;0;0;8;0;4931;0;0;0;0;9;0;2619;0;0;0;0
17.01.18;19:35:00;1;479;10493;0;2;0;4180;0;0;0;0;3;0;2681;0;0;0;0;4;0;3515;0;0;0;0;5;0;9157;2;0;0;0;0;0;6;0;6855;2;0;0;0;0;0;7;0;5178;0;0;0;0;8;0;4931;0;0;0;0;9;0;2619;0;0;0;0
17.01.18;19:30:00;1;1260;10453;0;2;0;4180;0;0;0;0;3;0;2681;0;0;0;0;4;0;3515;0;0;0;0;5;0;9157;2;0;0;0;0;0;6;0;6855;2;0;0;0;0;0;7;0;5178;0;0;0;0;8;0;4931;0;0;0;0;9;0;2619;0;0;0;0
17.01.18;19:25:00;1;465;10383;0;2;0;4180;0;0;0;0;3;0;2681;0;0;0;0;4;0;3515;0;0;0;0;5;0;9157;2;0;0;0;0;0;6;0;6855;2;0;0;0;0;0;7;0;5178;0;0;0;0;8;0;4931;0;0;0;0;9;0;2619;0;0;0;0
17.01.18;19:20:00;1;829;10344;0;2;0;4180;0;0;0;0;3;0;2681;0;0;0;0;4;0;3515;0;0;0;0;5;0;9157;2;0;0;0;0;0;6;0;6855;2;0;0;0;0;0;7;0;5178;0;0;0;0;8;0;4931;0;0;0;0;9;0;2619;0;0;0;0
17.01.18;19:15:00;1;421;10279;0;2;0;4180;0;0;0;0;3;0;2681;0;0;0;0;4;0;3515;0;0;0;0;5;0;9157;2;0;0;0;0;0;6;0;6855;2;0;0;0;0;0;7;0;5178;0;0;0;0;8;0;4931;0;0;0;0;9;0;2619;0;0;0;0
17.01.18;19:10:00;1;1055;10244;0;2;0;4180;0;0;0;0;3;0;2681;0;0;0;0;4;0;3515;0;0;0;0;5;0;9157;2;0;0;0;0;0;6;0;6855;2;0;0;0;0;0;7;0;5178;0;0;0;0;8;0;4931;0;0;0;0;9;0;2619;0;0;0;0
17.01.18;19:05:00;1;477;10177;0;2;0;4180;0;0;0;0;3;0;2681;0;0;0;0;4;0;3515;0;0;0;0;5;0;9157;2;0;0;0;0;0;6;0;6855;2;0;0;0;0;0;7;0;5178;0;0;0;0;8;0;4931;0;0;0;0;9;0;2619;0;0;0;0
17.01.18;19:00:00;1;904;10137;0;2;0;4180;0;0;0;0;3;0;2681;0;0;0;0;4;0;3515;0;0;0;0;5;0;9157;2;0;0;0;0;0;6;0;6855;2;0;0;0;0;0;7;0;5178;0;0;0;0;8;0;4931;0;0;0;0;9;0;2619;0;0;0;0
17.01.18;18:55:00;1;536;10067;0;2;0;4180;0;0;0;0;3;0;2681;0;0;0;0;4;0;3515;0;0;0;0;5;0;9157;2;0;0;0;0;0;6;0;6855;2;0;0;0;0;0;7;0;5178;0;0;0;0;8;0;4931;0;0;0;0;9;0;2619;0;0;0;0
17.01.18;18:50:00;1;684;10023;0;2;0;4180;0;0;0;0;3;0;2681;0;0;0;0;4;0;3515;0;0;0;0;5;0;9157;2;0;0;0;0;0;6;0;6855;2;0;0;0;0;0;7;0;5178;0;0;0;0;8;0;4931;0;0;0;0;9;0;2619;0;0;0;0
17.01.18;18:45:00;1;583;9951;0;2;0;4180;0;0;0;0;3;0;2681;0;0;0;0;4;0;3515;0;0;0;0;5;0;9157;2;0;0;0;0;0;6;0;6855;2;0;0;0;0;0;7;0;5178;0;0;0;0;8;0;4931;0;0;0;0;9;0;2619;0;0;0;0
17.01.18;18:40:00;1;710;9902;0;2;0;4180;0;0;0;0;3;0;2681;0;0;0;0;4;0;3515;0;0;0;0;5;0;9157;2;0;0;0;0;0;6;0;6855;2;0;0;0;0;0;7;0;5178;0;0;0;0;8;0;4931;0;0;0;0;9;0;2619;0;0;0;0
17.01.18;18:35:00;1;487;9830;0;2;0;4180;0;0;0;0;3;0;2681;0;0;0;0;4;0;3515;0;0;0;0;5;0;9157;2;0;0;0;0;0;6;0;6855;2;0;0;0;0;0;7;0;5178;0;0;0;0;8;0;4931;0;0;0;0;9;0;2619;0;0;0;0
17.01.18;18:30:00;1;890;9789;0;2;0;4180;0;0;0;0;3;0;2681;0;0;0;0;4;0;3515;0;0;0;0;5;0;9157;2;0;0;0;0;0;6;0;6855;2;0;0;0;0;0;7;0;5178;0;0;0;0;8;0;4931;0;0;0;0;9;0;2619;0;0;0;0
17.01.18;18:25:00;1;527;9718;0;2;0;4180;0;0;0;0;3;0;2681;0;0;0;0;4;0;3515;0;0;0;0;5;0;9157;2;0;0;0;0;0;6;0;6855;2;0;0;0;0;0;7;0;5178;0;0;0;0;8;0;4931;0;0;0;0;9;0;2619;0;0;0;0
17.01.18;18:20:00;1;1407;9674;0;2;0;4180;0;0;0;0;3;0;2681;0;0;0;0;4;0;3515;0;0;0;0;5;0;9157;2;0;0;0;0;0;6;0;6855;2;0;0;0;0;0;7;0;5178;0;0;0;0;8;0;4931;0;0;0;0;9;0;2619;0;0;0;0
17.01.18;18:15:00;1;2334;9585;0;2;0;4180;0;0;0;0;3;0;2681;0;0;0;0;4;0;3515;0;0;0;0;5;0;9157;2;0;0;0;0;0;6;0;6855;2;0;0;0;0;0;7;0;5178;0;0;0;0;8;0;4931;0;0;0;0;9;0;2619;0;0;0;0
17.01.18;18:10:00;1;2865;9366;0;2;0;4180;0;0;0;0;3;0;2681;0;0;0;0;4;0;3515;0;0;0;0;5;0;9157;2;0;0;0;0;0;6;0;6855;2;0;0;0;0;0;7;0;5178;0;0;0;0;8;0;4931;0;0;0;0;9;0;2619;0;0;0;0
17.01.18;18:05:00;1;1112;9191;0;2;0;4180;0;0;0;0;3;0;2681;0;0;0;0;4;0;3515;0;0;0;0;5;0;9157;2;0;0;0;0;0;6;0;6855;2;0;0;0;0;0;7;0;5178;0;0;0;0;8;0;4931;0;0;0;0;9;0;2619;0;0;0;0
17.01.18;18:00:00;1;863;9087;0;2;0;4180;0;0;0;0;3;0;2681;0;0;0;0;4;0;3515;0;0;0;0;5;0;9157;2;0;0;0;0;0;6;0;6855;2;0;0;0;0;0;7;0;5178;0;0;0;0;8;0;4931;0;0;0;0;9;0;2619;0;0;0;0
17.01.18;17:55:00;1;1596;9014;0;2;0;4180;0;0;0;0;3;0;2681;0;0;0;0;4;0;3515;0;0;0;0;5;0;9157;2;0;0;0;0;0;6;0;6855;2;0;0;0;0;0;7;0;5178;0;0;0;0;8;0;4931;0;0;0;0;9;0;2619;0;0;0;0
17.01.18;17:50:00;1;976;8902;0;2;0;4180;0;0;0;0;3;0;2681;0;0;0;0;4;0;3515;0;0;0;0;5;0;9157;2;0;0;0;0;0;6;0;6855;2;0;0;0;0;0;7;0;5178;0;0;0;0;8;0;4931;0;0;0;0;9;0;2619;0;0;0;0
17.01.18;17:45:00;1;1173;8820;0;2;0;4180;0;0;0;0;3;0;2681;0;0;0;0;4;0;3515;0;0;0;0;5;0;9157;2;0;0;0;0;0;6;0;6855;2;0;0;0;0;0;7;0;5178;0;0;0;0;8;0;4931;0;0;0;0;9;0;2619;0;0;0;0
17.01.18;17:40:00;1;974;8713;0;2;0;4180;0;0;0;0;3;0;2681;0;0;0;0;4;0;3515;0;0;0;0;5;0;9157;2;0;0;0;0;0;6;0;6855;2;0;0;0;0;0;7;0;5178;0;0;0;0;8;0;4931;0;0;0;0;9;0;2619;0;0;0;0
17.01.18;17:35:00;1;1065;8625;0;2;0;4180;0;0;0;0;3;0;2681;0;0;0;0;4;0;3515;0;0;0;0;5;0;9157;2;0;0;0;0;0;6;0;6855;2;0;0;0;0;0;7;0;5178;0;0;0;0;8;0;4931;0;0;0;0;9;0;2619;0;0;0;0
17.01.18;17:30:00;1;1124;8531;0;2;0;4180;0;0;0;0;3;0;2681;0;0;0;0;4;0;3515;0;0;0;0;5;0;9157;2;0;0;0;0;0;6;0;6855;2;0;0;0;0;0;7;0;5178;0;0;0;0;8;0;4931;0;0;0;0;9;0;2619;0;0;0;0
17.01.18;17:25:00;1;1388;8428;0;2;0;4180;0;0;0;0;3;0;2681;0;0;0;0;4;0;3515;0;0;0;0;5;0;9157;2;0;0;0;0;0;6;0;6855;2;0;0;0;0;0;7;0;5178;0;0;0;0;8;0;4931;0;0;0;0;9;0;2619;0;0;0;0
17.01.18;17:20:00;1;3264;8311;0;2;0;4180;0;0;0;0;3;0;2681;0;0;0;0;4;0;3515;0;0;0;0;5;0;9157;2;0;0;0;0;0;6;0;6855;2;0;0;0;0;0;7;0;5178;0;0;0;0;8;0;4931;0;0;0;0;9;0;2619;0;0;0;0
17.01.18;17:15:00;1;2924;8038;0;2;0;4180;0;0;0;0;3;0;2681;0;0;0;0;4;0;3515;0;0;0;0;5;0;9157;2;0;0;0;0;0;6;0;6855;2;0;0;0;0;0;7;0;5178;0;0;0;0;8;0;4931;0;0;0;0;9;0;2619;0;0;0;0
17.01.18;17:10:00;1;3549;7792;0;2;0;4180;0;0;0;0;3;0;2681;0;0;0;0;4;0;3515;0;0;0;0;5;0;9157;2;0;0;0;0;0;6;0;6855;2;0;0;0;0;0;7;0;5178;0;0;0;0;8;0;4931;0;0;0;0;9;0;2619;0;0;0;0
17.01.18;17:05:00;1;4451;7488;0;2;0;4180;0;0;147;5;3;0;2681;0;0;240;11;4;0;3515;0;0;0;0;5;0;9157;2;0;0;0;0;0;6;0;6855;2;0;0;0;0;0;7;0;5178;0;0;0;0;8;0;4931;0;0;0;0;9;0;2619;0;0;0;0
17.01.18;17:00:00;1;4444;7098;0;2;0;4180;6;0;301;10;3;0;2681;6;0;344;13;4;0;3515;2;0;73;6;5;0;9157;2;0;0;21;21;3;6;0;6855;2;0;0;0;0;0;7;0;5178;0;0;0;0;8;0;4931;0;0;0;0;9;0;2619;0;0;0;0
17.01.18;16:55:00;1;4325;6716;0;2;0;4180;6;0;361;11;3;0;2681;6;1;427;13;4;0;3515;1;0;137;7;5;0;9157;26;0;0;382;403;19;6;0;6855;23;7;4;484;180;18;7;0;5178;0;0;242;10;8;0;4931;0;0;244;10;9;0;2619;6;0;297;8
17.01.18;16:50:00;1;2817;6356;0;2;0;4180;6;0;383;11;3;0;2681;6;4;433;13;4;0;3515;1;0;171;7;5;0;9157;23;0;0;410;553;19;6;0;6855;23;6;3;181;536;18;7;0;5178;6;0;336;12;8;0;4931;6;0;340;12;9;0;2619;6;0;354;9
17.01.18;16:45:00;1;1000;6134;0;2;0;4180;6;0;401;11;3;0;2681;6;3;486;13;4;0;3515;1;0;204;7;5;5;9157;4;0;1;416;639;20;6;0;6855;23;2;9;595;180;19;7;0;5178;6;0;384;13;8;0;4931;6;0;386;12;9;0;2619;6;0;413;9
17.01.18;16:40:00;1;449;6066;0;2;0;4180;6;0;411;11;3;0;2681;6;0;521;13;4;0;3515;1;0;223;8;5;0;9156;1;0;0;436;688;20;6;0;6855;23;5;3;182;586;19;7;0;5178;6;2;413;13;8;0;4931;6;3;406;12;9;0;2619;6;1;455;9
17.01.18;16:35:00;1;703;6029;0;2;3;4180;6;13;403;11;3;2;2681;3;10;494;13;4;0;3515;3;0;220;8;5;69;9155;4;16;17;372;589;21;6;17;6855;1;8;15;574;552;20;7;1;5178;6;1;454;13;8;0;4931;6;1;457;13;9;1;2619;6;1;489;9
17.01.18;16:30:00;1;431;5963;0;2;0;4179;6;0;431;12;3;4;2681;6;15;488;14;4;0;3515;3;0;208;8;5;89;9149;4;28;30;372;589;21;6;64;6853;4;29;38;489;465;21;7;2;5178;6;5;471;13;8;0;4930;6;5;472;13;9;0;2619;6;0;544;9
17.01.18;16:25:00;1;624;5922;0;2;44;4179;4;77;362;12;3;2;2681;6;8;536;14;4;4;3515;3;4;199;8;5;122;9142;4;50;41;372;589;21;6;83;6848;4;50;64;489;465;21;7;3;5178;6;7;489;14;8;0;4930;6;0;508;13;9;3;2619;4;10;514;9
17.01.18;16:20:00;1;409;5866;0;2;152;4176;4;191;390;12;3;58;2681;6;85;547;14;4;66;3515;3;69;212;9;5;245;9131;4;114;103;372;589;21;6;164;6841;4;85;100;489;468;21;7;80;5177;6;121;481;14;8;86;4930;4;122;452;13;9;15;2618;6;20;566;9
17.01.18;16:15:00;1;640;5813;0;2;348;4164;4;396;410;13;3;204;2676;4;248;525;14;4;242;3510;5;252;237;10;5;560;9110;4;280;236;414;625;21;6;419;6826;4;210;228;583;566;21;7;334;5171;4;377;480;14;8;312;4924;4;352;483;13;9;153;2617;4;185;528;10
17.01.18;16:10:00;1;668;5767;0;2;408;4135;4;453;405;13;3;223;2660;4;263;467;14;4;267;3491;5;278;241;10;5;595;9062;4;299;256;406;641;21;6;456;6790;4;225;244;552;567;21;7;426;5144;4;468;441;14;8;383;4898;4;427;482;13;9;185;2604;4;222;533;10
17.01.18;16:05:00;1;704;5705;0;2;1044;4101;4;1108;399;12;3;558;2641;4;611;453;14;4;400;3468;5;417;222;10;5;1213;9008;4;616;524;438;703;22;6;897;6750;4;464;467;583;563;21;7;1146;5109;4;1203;436;14;8;528;4867;4;570;462;13;9;184;2589;4;218;545;10
17.01.18;16:00:00;1;759;5665;0;2;170;4014;4;207;389;12;3;47;2595;4;56;557;14;4;104;3436;5;108;213;10;5;311;8908;4;154;125;381;602;22;6;221;6676;4;98;109;485;469;21;7;157;5015;4;175;487;14;8;132;4824;4;163;439;13;9;42;2574;4;51;539;9
17.01.18;15:55:00;1;479;5597;0;2;57;3997;4;89;379;12;3;9;2588;3;19;518;14;4;11;3425;3;12;199;10;5;151;8886;4;61;59;372;589;22;6;101;6660;4;54;69;489;465;21;7;17;4997;6;29;442;14;8;11;4810;6;19;470;14;9;2;2570;6;6;549;10
17.01.18;15:50:00;1;1002;5557;0;2;55;3993;4;89;369;12;3;6;2588;6;11;536;14;4;11;3424;3;12;198;10;5;157;8874;4;63;59;372;589;22;6;107;6652;4;52;70;489;465;21;7;19;4995;6;42;419;14;8;22;4810;6;42;422;14;9;2;2569;4;8;542;10
17.01.18;15:45:00;1;435;5488;0;2;60;3988;4;93;376;13;3;4;2587;6;9;541;14;4;18;3423;3;19;199;10;5;169;8861;4;69;65;372;589;22;6;114;6643;4;51;64;489;465;21;7;46;4994;4;75;376;14;8;43;4808;4;76;374;14;9;11;2569;3;24;502;10
17.01.18;15:40:00;1;749;5452;0;2;70;3983;4;106;374;13;3;7;2587;6;13;541;14;4;25;3422;3;26;198;10;5;195;8847;4;91;75;372;589;22;6;133;6633;4;68;77;489;465;21;7;50;4990;4;91;459;14;8;47;4804;4;94;453;14;9;5;2568;6;11;554;10
17.01.18;15:35:00;1;468;5386;0;2;87;3977;4;122;374;13;3;15;2586;6;27;529;15;4;33;3419;3;35;198;10;5;233;8830;4;110;98;372;589;22;6;160;6621;4;83;94;489;465;21;7;55;4986;4;93;471;14;8;51;4800;4;94;459;14;9;5;2568;6;10;560;10
17.01.18;15:30:00;1;1014;5346;0;2;280;3970;4;323;401;13;3;155;2585;6;189;523;15;4;222;3417;3;231;228;11;5;607;8810;4;294;258;409;658;22;6;433;6608;4;218;223;559;553;21;7;214;4981;4;262;494;15;8;216;4796;4;265;482;14;9;112;2567;6;139;532;11
17.01.18;15:25:00;1;457;5279;0;2;235;3948;4;276;388;14;3;123;2574;4;157;490;15;4;178;3400;5;185;231;11;5;466;8761;4;236;198;385;613;22;6;320;6572;4;155;163;489;466;21;7;262;4964;4;299;469;15;8;261;4779;4;303;483;14;9;143;2559;4;174;485;11
17.01.18;15:20:00;1;767;5241;0;2;154;3928;4;193;395;14;3;52;2563;6;77;551;15;4;95;3384;5;99;212;11;5;340;8723;4;170;147;379;599;22;6;247;6546;4;133;143;529;506;21;7;136;4942;4;178;457;15;8;138;4756;4;175;471;15;9;32;2546;6;44;560;11
17.01.18;15:15:00;1;519;5172;0;2;416;3915;4;463;399;14;3;242;2559;4;286;492;15;4;312;3376;5;325;242;11;5;788;8688;4;393;335;416;679;22;6;565;6523;4;290;305;557;538;21;7;377;4930;4;415;426;15;8;372;4745;4;411;429;15;9;144;2544;4;168;532;11
17.01.18;15:10:00;1;767;5111;0;2;110;3879;4;146;378;14;3;21;2538;4;28;550;15;4;51;3349;5;53;205;11;5;232;8628;4;111;91;372;589;22;6;161;6478;4;67;77;489;466;21;7;63;4898;4;94;359;15;8;69;4713;4;99;364;15;9;5;2532;6;10;555;11
17.01.18;15:05:00;1;848;5065;0;2;74;3869;4;109;382;14;3;12;2535;3;23;524;15;4;26;3345;3;27;198;11;5;199;8610;4;97;79;372;589;22;6;140;6465;4;63;70;489;465;21;7;47;4892;4;74;352;15;8;45;4706;4;75;356;15;9;3;2531;6;7;551;12
17.01.18;15:00:00;1;464;5000;0;2;72;3863;4;107;374;15;3;14;2534;6;27;507;16;4;16;3343;3;17;198;11;5;193;8593;4;93;75;372;589;23;6;138;6453;4;69;83;489;466;21;7;41;4888;4;74;370;15;8;41;4703;4;73;376;15;9;0;2531;6;0;574;12
17.01.18;14:55:00;1;947;4962;0;2;121;3856;4;158;396;15;3;46;2533;6;66;543;16;4;76;3341;3;79;210;12;5;364;8577;4;178;151;391;611;23;6;252;6442;4;119;131;542;515;22;7;79;4885;4;118;464;16;8;75;4699;4;120;464;15;9;15;2531;3;26;551;12
17.01.18;14:50:00;1;394;4897;0;2;404;3847;4;452;410;16;3;247;2530;4;295;521;17;4;336;3335;5;351;241;12;5;935;8544;4;475;403;426;691;23;6;705;6418;4;345;353;605;583;21;7;379;4878;4;427;479;16;8;370;4693;4;415;483;15;9;196;2530;4;234;535;13
17.01.18;14:45:00;1;697;4864;0;2;1828;3813;4;1920;415;17;3;1032;2509;4;1113;542;18;4;1029;3307;5;1072;258;12;5;2707;8461;4;1449;1192;442;710;22;6;2059;6356;4;1056;1050;620;595;21;7;1270;4846;4;1341;493;15;8;1156;4662;4;1231;500;15;9;640;2513;4;701;546;14
17.01.18;14:40:00;1;397;4799;0;2;767;3669;4;829;421;16;3;485;2428;4;544;542;17;4;642;3224;5;668;248;12;5;1845;8226;4;976;810;433;692;22;6;1671;6180;4;852;872;609;585;21;7;1631;4746;4;1715;477;15;8;1644;4570;4;1738;479;15;9;888;2463;4;959;521;14
17.01.18;14:35:00;1;869;4766;0;2;2463;3603;4;2587;416;16;3;1482;2387;4;1584;567;17;4;1423;3170;5;1482;257;12;5;3376;8079;4;1822;1458;442;739;22;6;2485;6069;4;1322;1273;618;579;21;7;2243;4609;4;2360;465;15;8;2084;4433;4;2196;504;15;9;1538;2388;4;1640;546;13
17.01.18;14:30:00;1;416;4704;0;2;1402;3389;4;1491;412;15;3;1087;2257;4;1174;550;16;4;1266;3050;5;1318;254;11;5;3066;7762;4;1648;1328;439;730;22;6;2467;5828;4;1292;1221;637;573;21;7;2512;4427;4;2650;510;14;8;2586;4261;4;2711;506;14;9;1211;2258;4;1300;557;12
17.01.18;14:25:00;1;656;4669;0;2;453;3272;4;499;401;14;3;392;2168;4;443;531;16;4;429;2945;5;447;239;11;5;913;7511;4;461;398;420;638;22;6;689;5637;4;363;363;599;559;21;7;693;4219;4;755;488;15;8;749;4045;4;799;467;14;9;457;2155;4;507;529;12
17.01.18;14:20:00;1;296;4605;0;2;325;3231;4;367;398;14;3;194;2134;4;238;521;16;4;251;2906;5;262;237;11;5;685;7429;4;345;292;417;649;22;6;506;5573;4;248;266;601;578;21;7;338;4156;4;372;491;15;8;328;3978;4;377;491;14;9;169;2114;4;206;548;12
17.01.18;14:15:00;1;662;4585;0;2;594;3204;4;647;419;15;3;373;2118;4;425;522;16;4;518;2885;5;539;251;12;5;1300;7367;4;664;561;438;707;22;6;960;5527;4;498;504;610;597;21;7;694;4128;4;749;480;15;8;690;3950;4;744;485;14;9;364;2100;4;413;543;12
17.01.18;14:10:00;1;225;4535;0;2;817;3155;4;880;422;15;3;505;2087;4;563;525;17;4;701;2843;5;730;250;12;5;1645;7257;4;857;723;437;725;22;6;1269;5445;4;655;649;616;594;21;7;937;4071;4;996;496;15;8;922;3893;4;986;501;14;9;498;2069;4;550;550;12
17.01.18;14:05:00;1;227;4516;0;2;886;3086;4;947;417;15;3;584;2045;4;645;527;16;4;768;2784;5;800;256;11;5;1808;7115;4;939;781;442;709;22;6;1338;5339;4;680;686;625;590;21;7;1058;3993;4;1122;484;15;8;1045;3816;4;1111;486;14;9;563;2028;4;617;551;12
17.01.18;14:00:00;1;491;4497;0;2;742;3012;4;801;422;15;3;467;1996;4;523;525;16;4;639;2719;5;666;249;11;5;1466;6969;4;759;633;438;719;22;6;1125;5229;4;584;571;615;594;21;7;826;3903;4;878;491;15;8;824;3727;4;889;490;14;9;446;1980;4;495;546;12
17.01.18;13:55:00;1;182;4447;0;2;656;2950;4;711;417;15;3;411;1957;4;463;521;16;4;566;2666;5;590;248;11;5;1377;6849;4;704;593;439;713;22;6;1026;5137;4;510;520;612;591;21;7;723;3834;4;773;499;15;8;716;3659;4;777;488;14;9;384;1943;4;433;537;12